Maple Lake, MN

3:11 AM CDT on August 19, 2017 (GMT -0500)
Maple Lake Municipal

Weather History for KMGG - September, 2013

Change the Weather History Date:

Monday, September 16, 2013

  Actual Average (KSTC) Record (KSTC)
Temperature  
Mean Temperature 52 °F -  
Max Temperature 65 °F 69 °F 94 °F (1948)
Min Temperature 39 °F 44 °F 29 °F (1943)
Degree Days  
Heating Degree Days 13    
Growing Degree Days 2 (Base 50)    
Moisture  
Dew Point 45 °F    
Average Humidity 76    
Maximum Humidity 100    
Minimum Humidity 44    
Precipitation  
Precipitation 0.00 in - - ()
Sea Level Pressure  
Sea Level Pressure 30.35 in    
Wind  
Wind Speed 2 mph (SE)    
Max Wind Speed 7 mph    
Max Gust Speed -    
Visibility 9 miles    
Events      
Averages and records for this station are not official NWS values.
T = Trace of Precipitation, MM = Missing Value Source: NWS Daily Summary

Daily Weather History Graph

Daily Weather History Graph

Search for Another Location

Airport or City:

Trip Planner

Search our weather history database for the weather conditions in past years. The results will help you decide how hot, cold, wet, or windy it might be!

Date:

Astronomy

Sep. 16, 2013 Rise Set
Actual Time 6:56 AM CDT 7:24 PM CDT
Civil Twilight 6:26 AM CDT 7:54 PM CDT
Nautical Twilight 5:51 AM CDT 8:28 PM CDT
Astronomical Twilight 5:15 AM CDT 9:04 PM CDT
Moon 5:39 PM CDT (9/16) 3:36 AM CDT (9/16)
Length of Visible Light 13h 27m
Length of Day
12h 28m
Waxing Gibbous, 90% of the Moon is Illuminated
Sep 16
Waxing Gibbous
Sep 19
Full
Sep 26
Last Quarter
Oct 4
New
Oct 11
First Quarter

Hourly Weather History & Observations

Time (CDT) Temp. Windchill Dew Point Humidity Pressure Visibility Wind Dir Wind Speed Gust Speed Precip Events Conditions
12:16 AM 47.3 °F - 45.9 °F 95% 30.34 in 10.0 mi ENE 3.5 mph - N/A   Clear
12:36 AM 47.7 °F - 46.6 °F 96% 30.35 in 10.0 mi East 4.6 mph - N/A   Clear
12:56 AM 48.0 °F - 46.9 °F 96% 30.35 in 10.0 mi East 4.6 mph - N/A   Clear
1:16 AM 50.2 °F - 48.2 °F 93% 30.36 in 10.0 mi East 4.6 mph - N/A   Clear
1:36 AM 49.3 °F - 47.5 °F 94% 30.36 in 10.0 mi Calm Calm - N/A   Clear
1:56 AM 47.8 °F - 46.2 °F 94% 30.36 in 10.0 mi Calm Calm - N/A   Clear
2:16 AM 44.6 °F - 43.9 °F 97% 30.37 in 10.0 mi Calm Calm - N/A   Clear
2:36 AM 44.4 °F - 43.7 °F 97% 30.37 in 7.0 mi Calm Calm - N/A   Clear
2:56 AM 44.2 °F - 43.9 °F 99% 30.37 in 7.0 mi Calm Calm - N/A   Clear
3:16 AM 44.4 °F - 44.2 °F 99% 30.37 in 10.0 mi Calm Calm - N/A   Clear
3:36 AM 42.6 °F - 42.1 °F 98% 30.37 in 10.0 mi Calm Calm - N/A   Clear
3:56 AM 42.1 °F - 41.9 °F 99% 30.37 in 10.0 mi Calm Calm - N/A   Clear
4:16 AM 41.4 °F - 41.0 °F 99% 30.38 in 4.0 mi Calm Calm - N/A   Clear
4:36 AM 41.0 °F - 40.8 °F 99% 30.38 in 10.0 mi Calm Calm - N/A   Clear
4:55 AM 40.3 °F - 40.1 °F 99% 30.39 in 7.0 mi Calm Calm - N/A   Clear
5:16 AM 40.3 °F - 40.1 °F 99% 30.39 in 10.0 mi Calm Calm - N/A   Clear
5:35 AM 40.6 °F - 40.5 °F 99% 30.39 in 7.0 mi Calm Calm - N/A   Clear
5:56 AM 39.7 °F - 39.6 °F 99% 30.39 in 7.0 mi Calm Calm - N/A   Clear
6:16 AM 39.6 °F - 39.4 °F 99% 30.39 in 0.8 mi Calm Calm - N/A   Mist
6:36 AM 40.3 °F - 40.1 °F 99% 30.40 in 1.2 mi Calm Calm - N/A   Mist
6:56 AM 39.6 °F - 39.4 °F 99% 30.40 in 2.5 mi Calm Calm - N/A   Clear
7:16 AM 39.2 °F - 39.2 °F 100% 30.40 in 5.0 mi Calm Calm - N/A   Clear
7:36 AM 39.6 °F - 39.6 °F 100% 30.41 in 7.0 mi Calm Calm - N/A   Clear
7:56 AM 41.9 °F 40.0 °F 41.9 °F 100% 30.40 in 10.0 mi ENE 3.5 mph - N/A   Clear
8:16 AM - - - N/A% 30.40 in 10.0 mi Calm Calm - N/A   Clear
8:36 AM 47.3 °F - 47.5 °F 100% 30.41 in 10.0 mi East 4.6 mph - N/A   Clear
8:56 AM 48.6 °F - 46.4 °F 92% 30.41 in 10.0 mi ESE 3.5 mph - N/A   Clear
9:15 AM 50.0 °F - 44.8 °F 82% 30.41 in 10.0 mi East 6.9 mph - N/A   Clear
9:36 AM 51.1 °F - 45.0 °F 80% 30.42 in 10.0 mi East 5.8 mph - N/A   Clear
9:56 AM 52.2 °F - 44.4 °F 75% 30.42 in 10.0 mi SE 4.6 mph - N/A   Clear
10:16 AM 52.9 °F - 43.7 °F 71% 30.42 in 10.0 mi Calm Calm - N/A   Clear
10:36 AM 54.0 °F - 44.1 °F 69% 30.41 in 10.0 mi SE 4.6 mph - N/A   Clear
10:56 AM 55.2 °F - 44.8 °F 68% 30.41 in 10.0 mi SE 5.8 mph - N/A   Clear
11:16 AM 55.8 °F - 45.7 °F 69% 30.41 in 10.0 mi Calm Calm - N/A   Clear
11:35 AM 57.6 °F - 45.5 °F 64% 30.41 in 10.0 mi SE 5.8 mph - N/A   Clear
11:56 AM 58.1 °F - 45.0 °F 62% 30.41 in 10.0 mi SE 4.6 mph - N/A   Clear
12:16 PM 59.0 °F - 44.6 °F 59% 30.41 in 10.0 mi SSE 3.5 mph - N/A   Clear
12:36 PM 60.1 °F - 46.0 °F 60% 30.40 in 10.0 mi East 3.5 mph - N/A   Clear
12:56 PM 60.4 °F - 44.8 °F 56% 30.39 in 10.0 mi SE 3.5 mph - N/A   Clear
1:16 PM 61.7 °F - 45.0 °F 54% 30.39 in 10.0 mi Calm Calm - N/A   Clear
1:36 PM 62.8 °F - 45.1 °F 53% 30.39 in 10.0 mi SSE 3.5 mph - N/A   Clear
1:55 PM 63.1 °F - 44.8 °F 51% 30.38 in 10.0 mi SSE 3.5 mph - N/A   Clear
2:16 PM 63.3 °F - 44.4 °F 50% 30.37 in 10.0 mi SE 5.8 mph - N/A   Clear
2:36 PM 64.0 °F - 44.1 °F 48% 30.36 in 10.0 mi SE 3.5 mph - N/A   Clear
2:56 PM 64.8 °F - 44.4 °F 48% 30.35 in 10.0 mi ESE 3.5 mph - N/A   Clear
3:15 PM 64.6 °F - 45.1 °F 49% 30.34 in 10.0 mi SE 5.8 mph - N/A   Clear
3:36 PM 65.5 °F - 45.1 °F 48% 30.34 in 10.0 mi SE 3.5 mph - N/A   Clear
3:56 PM 65.5 °F - 43.0 °F 44% 30.32 in 10.0 mi ESE 6.9 mph - N/A   Clear
4:15 PM 65.3 °F - 43.2 °F 45% 30.32 in 10.0 mi SSE 5.8 mph - N/A   Clear
4:36 PM 65.3 °F - 45.0 °F 48% 30.31 in 10.0 mi SSE 4.6 mph - N/A   Clear
4:56 PM 64.8 °F - 43.5 °F 46% 30.30 in 10.0 mi ESE 5.8 mph - N/A   Clear
5:16 PM 64.8 °F - 45.3 °F 49% 30.29 in 10.0 mi SE 5.8 mph - N/A   Clear
5:36 PM 64.4 °F - 47.1 °F 53% 30.28 in 10.0 mi SE 3.5 mph - N/A   Clear
5:56 PM 63.9 °F - 46.6 °F 53% 30.28 in 10.0 mi ESE 5.8 mph - N/A   Clear
6:16 PM 63.3 °F - 47.1 °F 56% 30.28 in 10.0 mi SE 5.8 mph - N/A   Clear
6:36 PM 62.2 °F - 47.7 °F 59% 30.28 in 10.0 mi SE 3.5 mph - N/A   Clear
6:55 PM 61.3 °F - 47.8 °F 61% 30.27 in 10.0 mi SE 3.5 mph - N/A   Clear
7:16 PM 59.9 °F - 47.8 °F 64% 30.26 in 10.0 mi ESE 3.5 mph - N/A   Clear
7:36 PM 59.4 °F - 47.7 °F 65% 30.26 in 10.0 mi Calm Calm - N/A   Clear
7:56 PM 56.8 °F - 48.6 °F 74% 30.26 in 7.0 mi Calm Calm - N/A   Clear
8:16 PM 53.2 °F - 48.2 °F 83% 30.26 in 10.0 mi Calm Calm - N/A   Clear
8:36 PM 53.6 °F - 47.7 °F 80% 30.26 in 10.0 mi Calm Calm - N/A   Clear
8:56 PM 52.7 °F - 47.8 °F 84% 30.26 in 10.0 mi Calm Calm - N/A   Clear
9:16 PM 56.1 °F - 48.0 °F 74% 30.26 in 10.0 mi ESE 3.5 mph - N/A   Clear
9:36 PM 56.7 °F - 46.9 °F 70% 30.25 in 10.0 mi ESE 5.8 mph - N/A   Clear
9:56 PM 55.4 °F - 46.4 °F 72% 30.25 in 10.0 mi SE 4.6 mph - N/A   Clear
10:16 PM 54.9 °F - 46.6 °F 74% 30.25 in 10.0 mi Calm Calm - N/A   Clear
10:36 PM 53.4 °F - 46.6 °F 78% 30.25 in 10.0 mi Calm Calm - N/A   Clear
10:56 PM 53.2 °F - 46.4 °F 78% 30.25 in 10.0 mi SE 3.5 mph - N/A   Clear
11:16 PM 52.9 °F - 46.4 °F 79% 30.25 in 10.0 mi Calm Calm - N/A   Clear
11:36 PM 52.0 °F - 45.9 °F 80% 30.25 in 10.0 mi Calm Calm - N/A   Clear
11:55 PM 51.8 °F - 45.7 °F 80% 30.25 in 10.0 mi Calm Calm - N/A   Clear